Terminal Aerodrome Forecast
Issued by NWS Mt. Holly, NJ

Home | Current Version | Previous Version | Text Only | Print | Product List | Glossary On
Versions: 1 2 3 4 5 6 7 8 9 10 11 12 13 14 15 16 17 18 19 20 21 22 23 24 25 26 27 28 29 30 31 32 33 34 35 36 37 38 39 40 41 42 43 44 45 46 47 48
000
FTAK31 PANC 282339
TAFABE
TAF
PABE 282339Z 2900/2924 09008KT P6SM -RA OVC040 WS020/18035KT
     FM290200 06012G18KT 3SM -RA OVC025 WS020/15040KT
     FM290600 09015G25KT P6SM -RA SCT025 OVC050 WS020/15035KT
     FM291500 10012KT P6SM OVC050 WS020/13040KT=

USA.gov is the U.S. government's official web portal to all federal, state and local government web resources and services.